Regional Weather Roundup
Issued by NWS

Home | Current Version | Previous Version | Graphics & Text | Print | Product List | Glossary On
Versions: 1 2 3 4 5 6 7 8 9 10 11 12 13 14 15 16 17 18 19 20 21 22 23 24 25 26 27 28 29 30 31 32 33 34 35 36 37 38 39 40 41 42 43 44 45 46 47 48 49 50
000
ASUS45 KCYS 021410
RWRWY

WYOMING REGIONAL WEATHER ROUNDUP
NATIONAL WEATHER SERVICE CHEYENNE WY
800 AM MDT TUE SEP 02 2014

NOTE:  "FAIR" INDICATES FEW OR NO CLOUDS BELOW 12,000 FEET
WITH NO SIGNIFICANT WEATHER AND/OR OBSTRUCTIONS TO VISIBILITY.

WYZ001-021500-
YELLOWSTONE NATIONAL PARK

CITY           SKY/WX    TMP DP  RH WIND       PRES   REMARKS
LK YELLOWSTONE   N/A     32  31  96 CALM      30.20R
W YELLOWSTONE  NOT AVBL

$$
WYZ002>013-054>058-071-098>099-021500-
NORTHERN WYOMING

CITY           SKY/WX    TMP DP  RH WIND       PRES   REMARKS
JACKSON        SUNNY     36  36 100 CALM      30.17S
CODY             N/A    N/A N/A N/A MISG        N/A
GREYBULL         N/A    N/A N/A N/A MISG      29.98R
WORLAND        SUNNY     50  42  74 W5        29.98R
SHERIDAN       SUNNY     54  42  64 CALM      29.94R
BUFFALO        SUNNY     60  39  45 SW3       29.98F
GILLETTE       SUNNY     55  44  66 S14       29.96S
HULETT         FAIR      61  41  48 MISG      29.98
NEWCASTLE      FAIR      55  41  58 CALM      30.02

$$
WYZ014>020-022>026-101>103-021500-
CENTRAL WYOMING

CITY           SKY/WX    TMP DP  RH WIND       PRES   REMARKS
BIG PINEY      SUNNY     38  32  79 CALM      30.23R
PINEDALE       SUNNY     34  32  93 NW5       30.23R WCI  30
DUBOIS         FAIR      43  30  61 NW14      30.14S
LANDER         SUNNY     52  33  48 CALM      30.06S
RIVERTON       SUNNY     52  29  41 W6        30.07S
CASPER         SUNNY     51  39  63 W8        30.07S
DOUGLAS        SUNNY     46  44  93 CALM      30.07S

$$
WYZ021-027>030-104>119-021500-
SOUTHERN WYOMING

CITY           SKY/WX    TMP DP  RH WIND       PRES   REMARKS
EVANSTON       SUNNY     50  27  40 E3        30.21R
KEMMERER       SUNNY     41  36  81 N7        30.23R
FORT BRIDGER   FAIR      51  29  41 CALM      30.24S
ROCK SPRINGS   SUNNY     51  33  50 NE5       30.20S
DIXON          FAIR      47  36  65 E5        30.24S
RAWLINS        MOSUNNY   54  32  43 SW7       30.19R
SARATOGA       FAIR      46  36  66 SE6       30.23R
LARAMIE        SUNNY     48  36  63 S6        30.19S
CHEYENNE       SUNNY     55  43  63 SW7       30.15S
TORRINGTON     SUNNY     50  46  86 SE9       30.05S
PINE BLUFFS    FAIR      48  45  87 S5        30.13F

$$



USA.gov is the U.S. government's official web portal to all federal, state and local government web resources and services.